Location: Unspecified
(0.0000°N, 0.0000°E)
Time: 05:01:13
(UTC+00:00)

Vanguard 2 Rocket - Pass Details

Date: 12 December 2017
Orbit: 556 x 3326 km, 32.9° (Epoch: 15 January)

Event Time Altitude Azimuth Distance (km) Brightness Sun altitude
Rises 21:34:42 0° 309° (NW) 6,103 11.2 -49.0°
Reaches altitude 10° 21:40:59 10° 327° (NNW) 5,573 10.8 -50.3°
Enters shadow 21:43:42 13° 336° (NNW) 5,451 10.7 -50.8°
Maximum altitude 21:51:27 18° 4° (N) 5,460 - -52.3°
Drops below altitude 10° 22:03:07 10° 40° (NE) 6,275 - -54.5°
Sets 22:11:04 0° 57° (ENE) 7,160 - -55.9°
